Time,TemperatureF,DewpointF,PressureIn,WindDirection,WindDirectionDegrees,WindSpeedMPH,WindSpeedGustMPH,Humidity,HourlyPrecipIn,Conditions,Clouds,dailyrainin,SoftwareType,DateUTC
2013-01-13 00:00:00,67.1,61.4,29.85,SSW,202,5.6,12.3,82,0.00,,OVC044,0.00,VWS V14.01,2013-01-13 05:00:00,
2013-01-13 00:02:00,67.1,61.4,29.85,SSE,158,3.8,12.3,82,0.00,,OVC044,0.00,VWS V14.01,2013-01-13 05:02:00,
2013-01-13 00:03:00,67.1,61.4,29.85,SW,225,4.9,12.3,82,0.00,,OVC044,0.00,VWS V14.01,2013-01-13 05:03:00,
2013-01-13 00:08:00,67.1,61.1,29.85,SSW,202,8.7,12.3,81,0.00,,OVC044,0.00,VWS V14.01,2013-01-13 05:08:00,
2013-01-13 00:13:00,67.1,60.7,29.85,South,180,6.3,12.8,80,0.00,,OVC044,0.00,VWS V14.01,2013-01-13 05:13:00,
2013-01-13 00:18:00,67.1,60.7,29.85,SW,225,7.6,12.8,80,0.00,,OVC049,0.00,VWS V14.01,2013-01-13 05:18:00,
2013-01-13 00:23:00,67.1,60.4,29.85,South,180,7.8,15.9,79,0.00,,OVC049,0.00,VWS V14.01,2013-01-13 05:23:00,
2013-01-13 00:28:00,67.3,60.5,29.85,SSE,158,8.1,15.9,79,0.00,,OVC049,0.00,VWS V14.01,2013-01-13 05:28:00,
2013-01-13 00:33:00,67.3,60.2,29.85,SW,225,12.5,15.9,78,0.00,,OVC049,0.00,VWS V14.01,2013-01-13 05:33:00,
2013-01-13 00:38:00,67.3,60.2,29.85,South,180,5.8,15.9,78,0.00,,OVC049,0.00,VWS V14.01,2013-01-13 05:38:00,
2013-01-13 00:43:00,67.5,59.6,29.82,South,180,10.3,17.5,76,0.00,,OVC049,0.00,VWS V14.01,2013-01-13 05:43:00,
2013-01-13 00:48:00,67.5,59.6,29.82,SSW,202,10.5,17.5,76,0.00,,OVC049,0.00,VWS V14.01,2013-01-13 05:48:00,
2013-01-13 00:53:00,67.6,59.1,29.82,SSE,158,8.5,17.5,74,0.00,,OVC049,0.00,VWS V14.01,2013-01-13 05:53:00,
2013-01-13 00:58:00,67.5,58.9,29.82,SSE,158,13.0,17.5,74,0.00,,OVC049,0.00,VWS V14.01,2013-01-13 05:58:00,
2013-01-13 01:03:00,67.6,58.7,29.82,SW,225,8.7,12.8,73,0.00,,OVC049,0.00,VWS V14.01,2013-01-13 06:03:00,
2013-01-13 01:08:00,67.6,58.7,29.82,SSW,202,5.4,12.8,73,0.00,,OVC049,0.00,VWS V14.01,2013-01-13 06:08:00,
2013-01-13 01:13:00,67.6,58.7,29.82,WSW,248,8.7,14.5,73,0.00,,OVC049,0.00,VWS V14.01,2013-01-13 06:13:00,
2013-01-13 01:18:00,67.6,58.3,29.82,South,180,9.4,14.5,72,0.00,,OVC050,0.00,VWS V14.01,2013-01-13 06:18:00,
2013-01-13 01:23:00,67.6,58.3,29.82,SW,225,7.6,14.5,72,0.00,,OVC050,0.00,VWS V14.01,2013-01-13 06:23:00,
2013-01-13 01:28:00,67.6,58.3,29.82,SSW,202,8.5,14.5,72,0.00,,OVC050,0.00,VWS V14.01,2013-01-13 06:28:00,
2013-01-13 01:33:00,67.6,57.9,29.82,SW,225,11.4,17.9,71,0.00,,OVC050,0.00,VWS V14.01,2013-01-13 06:33:00,
2013-01-13 01:38:00,67.8,58.1,29.82,SSE,158,6.0,17.9,71,0.00,,OVC050,0.00,VWS V14.01,2013-01-13 06:38:00,
2013-01-13 01:43:00,67.5,58.1,29.82,SSE,158,7.6,17.9,72,0.00,,OVC050,0.00,VWS V14.01,2013-01-13 06:43:00,
2013-01-13 01:48:00,67.3,58.0,29.82,SSW,202,14.8,17.9,72,0.00,,OVC029,0.00,VWS V14.01,2013-01-13 06:48:00,
2013-01-13 01:53:00,67.3,58.0,29.82,SSW,202,6.0,17.9,72,0.00,,OVC029,0.00,VWS V14.01,2013-01-13 06:53:00,
2013-01-13 01:58:00,67.3,58.0,29.85,SW,225,8.7,17.9,72,0.00,,OVC029,0.00,VWS V14.01,2013-01-13 06:58:00,
2013-01-13 02:03:00,67.3,58.7,29.85,SSW,202,13.9,17.9,74,0.00,,OVC029,0.00,VWS V14.01,2013-01-13 07:03:00,
2013-01-13 02:08:00,66.7,58.6,29.85,SSW,202,6.5,17.9,75,0.00,,OVC029,0.00,VWS V14.01,2013-01-13 07:08:00,
2013-01-13 02:13:00,66.4,59.0,29.82,SSW,202,5.8,17.9,77,0.00,,OVC029,0.00,VWS V14.01,2013-01-13 07:13:00,
2013-01-13 02:18:00,66.2,59.2,29.82,SSE,158,6.0,17.9,78,0.00,,-RA,0.00,VWS V14.01,2013-01-13 07:18:00,
2013-01-13 02:23:00,65.8,59.5,29.82,SSE,158,3.4,17.9,80,0.00,,-RA,0.00,VWS V14.01,2013-01-13 07:23:00,
2013-01-13 02:28:00,65.8,59.5,29.85,SSW,202,4.9,17.9,80,0.00,,-RA,0.00,VWS V14.01,2013-01-13 07:28:00,
2013-01-13 02:33:00,65.8,59.5,29.85,South,180,4.0,17.9,80,0.00,,-RA,0.00,VWS V14.01,2013-01-13 07:33:00,
2013-01-13 02:38:00,65.8,59.8,29.85,West,270,7.8,17.9,81,0.00,,-RA,0.00,VWS V14.01,2013-01-13 07:38:00,
2013-01-13 02:43:00,66.0,60.0,29.82,SW,225,6.5,17.9,81,0.00,,-RA,0.00,VWS V14.01,2013-01-13 07:43:00,
2013-01-13 02:48:00,66.0,59.3,29.82,WSW,248,7.2,17.9,79,0.00,,-RA,0.00,VWS V14.01,2013-01-13 07:48:00,
2013-01-13 02:53:00,64.4,57.8,29.82,SSW,202,5.6,17.9,79,0.13,,-RA,0.13,VWS V14.01,2013-01-13 07:53:00,
2013-01-13 02:58:00,63.5,57.2,29.91,SW,225,0.0,17.9,80,0.21,,-RA,0.21,VWS V14.01,2013-01-13 07:58:00,
2013-01-13 03:03:00,62.8,57.2,29.91,WNW,292,0.0,7.2,82,0.25,,-RA,0.25,VWS V14.01,2013-01-13 08:03:00,
2013-01-13 03:08:00,62.4,57.9,29.91,SSW,202,0.9,7.2,85,0.29,,-RA,0.29,VWS V14.01,2013-01-13 08:08:00,
2013-01-13 03:13:00,61.9,58.0,29.88,SSW,202,1.6,7.2,87,0.29,,-RA,0.29,VWS V14.01,2013-01-13 08:13:00,
2013-01-13 03:18:00,61.7,58.4,29.88,SW,225,3.1,7.2,89,0.33,,-RA,0.33,VWS V14.01,2013-01-13 08:18:00,
2013-01-13 03:23:00,61.5,58.6,29.88,SSW,202,0.9,7.2,90,0.37,,-RA,0.37,VWS V14.01,2013-01-13 08:23:00,
2013-01-13 03:28:00,61.3,58.7,29.91,SSW,202,0.0,7.2,91,0.42,,-RA,0.42,VWS V14.01,2013-01-13 08:28:00,
2013-01-13 03:33:00,61.2,59.1,29.91,SW,225,0.0,7.2,93,0.50,,-RA,0.50,VWS V14.01,2013-01-13 08:33:00,
2013-01-13 03:38:00,61.0,59.0,29.91,SW,225,4.3,7.2,93,0.50,,-RA,0.50,VWS V14.01,2013-01-13 08:38:00,
2013-01-13 03:43:00,61.0,59.2,29.91,SSW,202,2.0,7.2,94,0.58,,-RA,0.58,VWS V14.01,2013-01-13 08:43:00,
2013-01-13 03:48:00,60.8,59.4,29.91,SSE,158,2.2,7.2,95,0.62,,-RA,0.62,VWS V14.01,2013-01-13 08:48:00,
2013-01-13 03:53:00,60.8,59.4,29.91,South,180,0.0,7.2,95,0.62,,-RA,0.62,VWS V14.01,2013-01-13 08:53:00,
2013-01-13 03:58:00,60.6,59.5,29.91,South,180,1.6,7.2,96,0.67,,-RA,0.67,VWS V14.01,2013-01-13 08:58:00,
2013-01-13 04:03:00,60.6,59.5,29.91,South,180,0.0,2.7,96,0.46,,-RA,0.67,VWS V14.01,2013-01-13 09:03:00,
2013-01-13 04:08:00,60.6,59.8,29.91,SSW,202,0.0,2.7,97,0.46,,-RA,0.67,VWS V14.01,2013-01-13 09:08:00,
2013-01-13 04:13:00,60.6,59.8,29.91,South,180,0.0,2.7,97,0.49,,-RA,0.70,VWS V14.01,2013-01-13 09:13:00,
2013-01-13 04:18:00,60.4,59.9,29.91,South,180,0.0,2.7,98,0.54,,-RA,0.75,VWS V14.01,2013-01-13 09:18:00,
2013-01-13 04:23:00,60.4,59.9,29.91,South,180,3.1,3.1,98,0.54,,-RA,0.75,VWS V14.01,2013-01-13 09:23:00,
2013-01-13 04:28:00,60.4,59.9,29.91,SW,225,1.1,4.9,98,0.62,,-RA,0.83,VWS V14.01,2013-01-13 09:28:00,
2013-01-13 04:33:00,60.4,59.9,29.91,South,180,2.0,5.4,98,0.62,,-RA,0.83,VWS V14.01,2013-01-13 09:33:00,
2013-01-13 04:38:00,60.4,59.9,29.91,SSE,158,2.7,5.4,98,0.66,,-RA,0.87,VWS V14.01,2013-01-13 09:38:00,
2013-01-13 04:43:00,60.4,59.9,29.94,SSE,158,4.0,5.4,98,0.66,,-RA,0.87,VWS V14.01,2013-01-13 09:43:00,
2013-01-13 04:48:00,60.4,59.9,29.94,South,180,0.0,5.4,98,0.70,,-RA,0.91,VWS V14.01,2013-01-13 09:48:00,
2013-01-13 04:53:00,60.4,59.9,29.94,SW,225,1.6,5.4,98,0.70,,-RA,0.91,VWS V14.01,2013-01-13 09:53:00,
2013-01-13 04:58:00,60.4,59.9,29.91,SW,225,2.5,5.4,98,0.83,,-RA,1.04,VWS V14.01,2013-01-13 09:58:00,
2013-01-13 05:03:00,60.4,59.9,29.91,South,180,0.0,2.7,98,0.41,,-RA,1.08,VWS V14.01,2013-01-13 10:03:00,
2013-01-13 05:08:00,60.4,59.9,29.91,SSW,202,0.0,3.8,98,0.45,,-RA,1.12,VWS V14.01,2013-01-13 10:08:00,
2013-01-13 05:13:00,60.4,59.9,29.91,SSW,202,0.0,3.8,98,0.45,,-RA,1.12,VWS V14.01,2013-01-13 10:13:00,
2013-01-13 05:18:00,60.4,59.9,29.91,South,180,0.0,3.8,98,0.49,,-RA,1.16,VWS V14.01,2013-01-13 10:18:00,
2013-01-13 05:23:00,60.4,59.9,29.91,South,180,0.0,3.8,98,0.49,,-RA,1.16,VWS V14.01,2013-01-13 10:23:00,
2013-01-13 05:28:00,60.4,59.9,29.91,SSE,158,0.0,3.8,98,0.49,,-RA,1.16,VWS V14.01,2013-01-13 10:28:00,
2013-01-13 05:33:00,60.4,59.9,29.91,South,180,0.0,3.8,98,0.49,,-RA,1.16,VWS V14.01,2013-01-13 10:33:00,
2013-01-13 05:38:00,60.4,59.9,29.91,South,180,0.0,3.8,98,0.49,,-RA,1.16,VWS V14.01,2013-01-13 10:38:00,
2013-01-13 05:43:00,60.3,59.7,29.91,SSE,158,0.0,3.8,98,0.49,,-RA,1.16,VWS V14.01,2013-01-13 10:43:00,
2013-01-13 05:48:00,60.3,59.7,29.91,SSE,158,0.0,3.8,98,0.49,,-RA,1.16,VWS V14.01,2013-01-13 10:48:00,
2013-01-13 05:53:00,60.3,59.7,29.91,South,180,0.0,3.8,98,0.49,,-RA,1.16,VWS V14.01,2013-01-13 10:53:00,
2013-01-13 05:58:00,60.3,59.7,29.91,South,180,0.0,3.8,98,0.49,,-RA,1.16,VWS V14.01,2013-01-13 10:58:00,
2013-01-13 06:03:00,60.3,59.7,29.91,SSE,158,0.0,0.0,98,0.12,,-RA,1.16,VWS V14.01,2013-01-13 11:03:00,
2013-01-13 06:08:00,60.3,59.7,29.91,SE,135,0.0,0.0,98,0.16,,-RA,1.20,VWS V14.01,2013-01-13 11:08:00,
2013-01-13 06:13:00,60.3,59.7,29.91,SSE,158,0.0,1.1,98,0.16,,-RA,1.20,VWS V14.01,2013-01-13 11:13:00,
2013-01-13 06:18:00,60.3,59.7,29.91,SE,135,0.0,1.1,98,0.16,,-RA,1.20,VWS V14.01,2013-01-13 11:18:00,
2013-01-13 06:23:00,60.3,59.7,29.91,SSE,158,0.0,1.1,98,0.16,,-RA,1.20,VWS V14.01,2013-01-13 11:23:00,
2013-01-13 06:28:00,60.1,59.5,29.94,SSW,202,0.0,1.1,98,0.16,,-RA,1.20,VWS V14.01,2013-01-13 11:28:00,
2013-01-13 06:33:00,60.1,59.5,29.94,SSW,202,0.0,1.1,98,0.16,,-RA,1.20,VWS V14.01,2013-01-13 11:33:00,
2013-01-13 06:38:00,60.1,59.5,29.94,SSW,202,0.0,1.1,98,0.20,,-RA,1.24,VWS V14.01,2013-01-13 11:38:00,
2013-01-13 06:43:00,60.1,59.5,29.97,SSW,202,0.0,1.1,98,0.20,,-RA,1.24,VWS V14.01,2013-01-13 11:43:00,
2013-01-13 06:48:00,60.1,59.5,29.97,South,180,0.0,1.1,98,0.20,,-RA,1.24,VWS V14.01,2013-01-13 11:48:00,
2013-01-13 06:53:00,60.1,59.5,29.97,ESE,112,0.0,1.1,98,0.20,,-RA,1.24,VWS V14.01,2013-01-13 11:53:00,
2013-01-13 06:58:00,60.1,59.5,29.97,SSE,158,0.0,1.1,98,0.20,,-RA,1.24,VWS V14.01,2013-01-13 11:58:00,
2013-01-13 07:03:00,60.1,59.5,29.97,SSE,158,0.0,0.0,98,0.13,,-RA,1.29,VWS V14.01,2013-01-13 12:03:00,
2013-01-13 07:08:00,60.1,59.5,29.97,ENE,68,0.0,0.0,98,0.13,,-RA,1.29,VWS V14.01,2013-01-13 12:08:00,
2013-01-13 07:13:00,60.1,59.5,29.97,SSE,158,0.0,0.0,98,0.13,,-RA,1.29,VWS V14.01,2013-01-13 12:13:00,
2013-01-13 07:18:00,60.1,59.5,29.97,SSE,158,0.0,0.0,98,0.13,,-RA,1.29,VWS V14.01,2013-01-13 12:18:00,
2013-01-13 07:23:00,60.1,59.5,29.97,SSE,158,0.0,0.0,98,0.17,,-RA,1.33,VWS V14.01,2013-01-13 12:23:00,
2013-01-13 07:28:00,60.1,59.5,29.97,SE,135,0.0,0.0,98,0.17,,-RA,1.33,VWS V14.01,2013-01-13 12:28:00,
2013-01-13 07:33:00,60.1,59.5,29.97,SSE,158,0.0,0.0,98,0.17,,-RA,1.33,VWS V14.01,2013-01-13 12:33:00,
2013-01-13 07:38:00,59.9,59.3,29.97,SSE,158,0.0,0.0,98,0.17,,-RA,1.33,VWS V14.01,2013-01-13 12:38:00,
2013-01-13 07:43:00,59.9,59.3,29.94,SSE,158,0.0,0.0,98,0.17,,-RA,1.33,VWS V14.01,2013-01-13 12:43:00,
2013-01-13 07:48:00,59.9,59.3,29.94,SSE,158,0.0,0.0,98,0.17,,-RA,1.33,VWS V14.01,2013-01-13 12:48:00,
2013-01-13 07:52:00,59.9,59.3,29.94,South,180,0.0,4.5,98,0.17,,-RA,1.33,VWS V14.01,2013-01-13 12:52:00,
2013-01-13 07:58:00,59.9,59.3,29.97,SSE,158,0.0,4.5,98,0.17,,-RA,1.33,VWS V14.01,2013-01-13 12:58:00,
2013-01-13 08:03:00,59.9,59.3,29.97,SSE,158,0.0,1.1,98,0.09,,-RA,1.33,VWS V14.01,2013-01-13 13:03:00,
2013-01-13 08:08:00,59.7,59.2,29.97,ESE,112,0.0,3.8,98,0.09,,-RA,1.33,VWS V14.01,2013-01-13 13:08:00,
2013-01-13 08:13:00,59.7,59.2,29.97,SE,135,0.0,3.8,98,0.09,,-RA,1.33,VWS V14.01,2013-01-13 13:13:00,
2013-01-13 08:18:00,59.7,59.2,29.97,SSE,158,0.0,3.8,98,0.13,,-RA,1.37,VWS V14.01,2013-01-13 13:18:00,
2013-01-13 08:23:00,59.7,59.2,29.97,SSE,158,0.0,3.8,98,0.13,,-RA,1.37,VWS V14.01,2013-01-13 13:23:00,
2013-01-13 08:27:00,59.5,59.0,29.94,ESE,112,0.0,3.8,98,0.13,,-RA,1.37,VWS V14.01,2013-01-13 13:27:00,
2013-01-13 08:32:00,59.5,59.0,29.94,SSE,158,2.7,8.5,98,0.13,,-RA,1.37,VWS V14.01,2013-01-13 13:32:00,
2013-01-13 08:37:00,59.4,58.8,29.94,SSE,158,11.0,11.0,98,0.17,,-RA,1.41,VWS V14.01,2013-01-13 13:37:00,
2013-01-13 08:42:00,59.4,58.8,29.94,SSE,158,0.9,11.0,98,0.17,,-RA,1.41,VWS V14.01,2013-01-13 13:42:00,
2013-01-13 08:47:00,59.4,58.8,29.94,SE,135,1.3,11.0,98,0.17,,-RA,1.41,VWS V14.01,2013-01-13 13:47:00,
2013-01-13 08:52:00,59.4,58.8,29.94,SSW,202,3.4,11.0,98,0.17,,-RA,1.41,VWS V14.01,2013-01-13 13:52:00,
2013-01-13 08:57:00,59.4,58.8,29.94,SSE,158,0.0,11.0,98,0.17,,-RA,1.41,VWS V14.01,2013-01-13 13:57:00,
2013-01-13 09:02:00,59.4,58.8,29.94,SSE,158,0.0,4.3,98,0.08,,-RA,1.41,VWS V14.01,2013-01-13 14:02:00,
2013-01-13 09:07:00,59.4,58.8,29.94,SSE,158,0.0,4.3,98,0.08,,-RA,1.41,VWS V14.01,2013-01-13 14:07:00,
2013-01-13 09:12:00,59.4,58.8,29.94,WSW,248,0.0,4.3,98,0.08,,-RA,1.41,VWS V14.01,2013-01-13 14:12:00,
2013-01-13 09:17:00,59.4,58.8,29.94,SSE,158,0.0,4.3,98,0.08,,-RA,1.41,VWS V14.01,2013-01-13 14:17:00,
2013-01-13 09:22:00,59.5,59.0,29.94,SSE,158,0.0,4.3,98,0.08,,-RA,1.41,VWS V14.01,2013-01-13 14:22:00,
2013-01-13 09:27:00,59.5,59.0,29.97,SSW,202,0.0,4.3,98,0.08,,-RA,1.41,VWS V14.01,2013-01-13 14:27:00,
2013-01-13 09:32:00,59.7,59.2,29.97,SSE,158,0.0,4.3,98,0.08,,-RA,1.41,VWS V14.01,2013-01-13 14:32:00,
2013-01-13 09:37:00,59.7,59.2,29.97,South,180,0.0,4.3,98,0.08,,-RA,1.41,VWS V14.01,2013-01-13 14:37:00,
2013-01-13 09:42:00,59.7,59.2,29.97,SSW,202,0.0,4.3,98,0.08,,-RA,1.41,VWS V14.01,2013-01-13 14:42:00,
2013-01-13 09:47:00,59.9,59.3,29.97,South,180,0.0,4.3,98,0.08,,-RA,1.41,VWS V14.01,2013-01-13 14:47:00,
2013-01-13 09:52:00,59.9,59.3,29.97,South,180,0.0,4.3,98,0.08,,-RA,1.41,VWS V14.01,2013-01-13 14:52:00,
2013-01-13 09:57:00,59.9,59.3,29.97,South,180,0.0,4.3,98,0.08,,-RA,1.41,VWS V14.01,2013-01-13 14:57:00,
2013-01-13 10:02:00,60.1,59.5,29.97,SSE,158,0.0,2.7,98,0.00,,-RA,1.41,VWS V14.01,2013-01-13 15:02:00,
2013-01-13 10:07:00,60.1,59.5,29.97,South,180,0.0,2.7,98,0.00,,-RA,1.41,VWS V14.01,2013-01-13 15:07:00,
2013-01-13 10:12:00,60.1,59.5,29.97,SSE,158,0.0,2.7,98,0.00,,-RA,1.41,VWS V14.01,2013-01-13 15:12:00,
2013-01-13 10:17:00,60.1,59.5,29.97,ESE,112,0.0,4.5,98,0.00,,-RA,1.41,VWS V14.01,2013-01-13 15:17:00,
2013-01-13 10:22:00,59.9,59.3,29.97,South,180,0.0,4.5,98,0.00,,-RA,1.41,VWS V14.01,2013-01-13 15:22:00,
2013-01-13 10:27:00,59.9,59.3,29.94,SSE,158,0.0,4.5,98,0.00,,-RA,1.41,VWS V14.01,2013-01-13 15:27:00,
2013-01-13 10:32:00,59.9,59.3,29.94,SE,135,3.4,4.5,98,0.04,,-RA,1.45,VWS V14.01,2013-01-13 15:32:00,
2013-01-13 10:37:00,59.9,59.3,29.94,SE,135,0.0,4.5,98,0.04,,-RA,1.45,VWS V14.01,2013-01-13 15:37:00,
2013-01-13 10:42:00,59.9,59.3,29.97,South,180,0.0,4.5,98,0.04,,-RA,1.45,VWS V14.01,2013-01-13 15:42:00,
2013-01-13 10:47:00,59.9,59.3,29.97,SE,135,4.0,4.5,98,0.04,,-RA,1.45,VWS V14.01,2013-01-13 15:47:00,
2013-01-13 10:52:00,59.9,59.3,29.97,SSE,158,0.0,4.5,98,0.04,,-RA,1.45,VWS V14.01,2013-01-13 15:52:00,
2013-01-13 10:57:00,59.7,59.2,29.97,SSE,158,0.0,4.5,98,0.08,,-RA,1.49,VWS V14.01,2013-01-13 15:57:00,
2013-01-13 11:02:00,59.7,59.2,29.97,SSE,158,0.0,3.6,98,0.08,,-RA,1.49,VWS V14.01,2013-01-13 16:02:00,
2013-01-13 11:07:00,59.7,59.2,29.97,SSW,202,0.0,3.6,98,0.08,,-RA,1.49,VWS V14.01,2013-01-13 16:07:00,
2013-01-13 11:12:00,59.7,59.2,29.97,SSE,158,2.5,3.6,98,0.08,,-RA,1.49,VWS V14.01,2013-01-13 16:12:00,
2013-01-13 11:17:00,59.7,59.2,29.97,SSE,158,5.4,5.4,98,0.08,,-RA,1.49,VWS V14.01,2013-01-13 16:17:00,
2013-01-13 11:22:00,59.7,59.2,29.97,SSE,158,0.0,5.4,98,0.08,,-RA,1.49,VWS V14.01,2013-01-13 16:22:00,
2013-01-13 11:27:00,59.5,59.0,29.94,South,180,0.0,5.4,98,0.08,,-RA,1.49,VWS V14.01,2013-01-13 16:27:00,
2013-01-13 11:32:00,59.5,59.0,29.94,South,180,2.9,5.4,98,0.08,,-RA,1.49,VWS V14.01,2013-01-13 16:32:00,
2013-01-13 11:37:00,59.5,59.0,29.94,South,180,0.0,5.4,98,0.08,,-RA,1.49,VWS V14.01,2013-01-13 16:37:00,
2013-01-13 11:42:00,59.5,59.0,29.94,SSE,158,2.7,5.6,98,0.08,,-RA,1.49,VWS V14.01,2013-01-13 16:42:00,
2013-01-13 11:47:00,59.7,59.2,29.94,SSW,202,0.0,5.6,98,0.08,,-RA,1.49,VWS V14.01,2013-01-13 16:47:00,
2013-01-13 11:52:00,59.5,59.0,29.94,SSW,202,4.3,7.4,98,0.08,,-RA,1.49,VWS V14.01,2013-01-13 16:52:00,
2013-01-13 11:57:00,59.5,59.0,29.94,South,180,2.9,7.4,98,0.08,,-RA,1.49,VWS V14.01,2013-01-13 16:57:00,
2013-01-13 12:02:00,59.7,59.2,29.94,South,180,0.0,2.2,98,0.00,,-RA,1.49,VWS V14.01,2013-01-13 17:02:00,
2013-01-13 12:07:00,59.7,59.2,29.94,SSW,202,0.0,2.2,98,0.05,,-RA,1.54,VWS V14.01,2013-01-13 17:07:00,
2013-01-13 12:12:00,59.7,59.2,29.94,SSE,158,0.0,2.2,98,0.05,,-RA,1.54,VWS V14.01,2013-01-13 17:12:00,
2013-01-13 12:17:00,59.7,59.2,29.94,South,180,3.1,4.7,98,0.05,,-RA,1.54,VWS V14.01,2013-01-13 17:17:00,
2013-01-13 12:22:00,59.7,59.2,29.94,SSW,202,0.0,4.7,98,0.05,,-RA,1.54,VWS V14.01,2013-01-13 17:22:00,
2013-01-13 12:27:00,59.7,59.2,29.91,SSE,158,0.0,4.7,98,0.05,,-RA,1.54,VWS V14.01,2013-01-13 17:27:00,
2013-01-13 12:32:00,59.7,59.2,29.91,SSE,158,0.0,4.7,98,0.05,,-RA,1.54,VWS V14.01,2013-01-13 17:32:00,
2013-01-13 12:37:00,59.7,59.2,29.91,South,180,0.0,4.7,98,0.08,,-RA,1.57,VWS V14.01,2013-01-13 17:37:00,
2013-01-13 12:42:00,59.9,59.3,29.91,South,180,0.0,4.7,98,0.08,,-RA,1.57,VWS V14.01,2013-01-13 17:42:00,
2013-01-13 12:47:00,59.9,59.3,29.91,SW,225,0.0,4.7,98,0.08,,-RA,1.57,VWS V14.01,2013-01-13 17:47:00,
2013-01-13 12:52:00,59.9,59.3,29.91,SSW,202,0.0,4.7,98,0.13,,-RA,1.62,VWS V14.01,2013-01-13 17:52:00,
2013-01-13 12:57:00,59.9,59.3,29.94,SSW,202,0.0,4.7,98,0.13,,-RA,1.62,VWS V14.01,2013-01-13 17:57:00,
2013-01-13 13:02:00,59.9,59.3,29.94,SSW,202,0.0,0.0,98,0.17,,-RA,1.66,VWS V14.01,2013-01-13 18:02:00,
2013-01-13 13:07:00,59.9,59.3,29.94,South,180,0.0,0.0,98,0.17,,-RA,1.66,VWS V14.01,2013-01-13 18:07:00,
2013-01-13 13:12:00,59.9,59.3,29.88,SSE,158,0.0,0.0,98,0.21,,-RA,1.70,VWS V14.01,2013-01-13 18:12:00,
2013-01-13 13:17:00,59.9,59.3,29.88,SSE,158,0.0,0.0,98,0.25,,RA,1.74,VWS V14.01,2013-01-13 18:17:00,
2013-01-13 13:22:00,59.9,59.3,29.88,SSW,202,0.0,0.0,98,0.25,,RA,1.74,VWS V14.01,2013-01-13 18:22:00,
2013-01-13 13:27:00,59.9,59.3,29.91,South,180,0.0,0.0,98,0.29,,RA,1.78,VWS V14.01,2013-01-13 18:27:00,
2013-01-13 13:32:00,59.9,59.3,29.91,SSW,202,0.0,0.9,98,0.34,,RA,1.83,VWS V14.01,2013-01-13 18:32:00,
2013-01-13 13:37:00,59.9,59.3,29.91,WSW,248,0.9,1.6,98,0.34,,RA,1.83,VWS V14.01,2013-01-13 18:37:00,
2013-01-13 13:42:00,58.8,58.3,29.94,WNW,292,0.9,3.8,98,0.38,,RA,1.87,VWS V14.01,2013-01-13 18:42:00,
2013-01-13 13:47:00,58.1,57.5,29.94,WNW,292,0.0,3.8,98,0.42,,RA,1.91,VWS V14.01,2013-01-13 18:47:00,
2013-01-13 13:52:00,57.4,56.8,29.94,NNW,338,0.0,3.8,98,0.46,,RA,1.95,VWS V14.01,2013-01-13 18:52:00,
2013-01-13 13:57:00,56.7,56.1,29.91,NNW,338,0.0,3.8,98,0.46,,RA,1.95,VWS V14.01,2013-01-13 18:57:00,
2013-01-13 14:02:00,56.1,55.6,29.91,NNW,338,0.0,0.0,98,0.33,,RA,1.99,VWS V14.01,2013-01-13 19:02:00,
2013-01-13 14:07:00,55.8,55.2,29.91,WNW,292,0.0,0.0,98,0.33,,RA,1.99,VWS V14.01,2013-01-13 19:07:00,
2013-01-13 14:12:00,55.4,54.8,29.91,NW,315,0.0,0.0,98,0.33,,RA,1.99,VWS V14.01,2013-01-13 19:12:00,
2013-01-13 14:17:00,55.2,54.7,29.91,NNW,338,0.0,0.0,98,0.33,,RA,1.99,VWS V14.01,2013-01-13 19:17:00,
2013-01-13 14:22:00,55.0,54.5,29.91,WNW,292,0.0,0.0,98,0.33,,RA,1.99,VWS V14.01,2013-01-13 19:22:00,
2013-01-13 14:27:00,54.9,54.3,29.91,WNW,292,0.0,0.0,98,0.33,,RA,1.99,VWS V14.01,2013-01-13 19:27:00,
2013-01-13 14:32:00,54.9,54.3,29.91,WNW,292,0.0,0.0,98,0.33,,-RA,1.99,VWS V14.01,2013-01-13 19:32:00,
2013-01-13 14:37:00,54.7,54.1,29.91,WNW,292,0.0,0.0,98,0.33,,-RA,1.99,VWS V14.01,2013-01-13 19:37:00,
2013-01-13 14:42:00,54.7,54.1,29.91,WNW,292,0.0,0.0,98,0.33,,-RA,1.99,VWS V14.01,2013-01-13 19:42:00,
2013-01-13 14:47:00,54.5,54.0,29.91,NW,315,0.0,0.0,98,0.33,,-RA,1.99,VWS V14.01,2013-01-13 19:47:00,
2013-01-13 14:52:00,54.5,54.0,29.91,WNW,292,0.0,0.0,98,0.33,,-RA,1.99,VWS V14.01,2013-01-13 19:52:00,
2013-01-13 14:57:00,54.3,53.8,29.91,West,270,0.0,0.0,98,0.33,,-RA,1.99,VWS V14.01,2013-01-13 19:57:00,
2013-01-13 15:02:00,54.1,53.6,29.91,WNW,292,0.0,0.0,98,0.08,,-RA,2.03,VWS V14.01,2013-01-13 20:02:00,
2013-01-13 15:07:00,54.0,53.4,29.91,WNW,292,2.9,4.0,98,0.08,,-RA,2.03,VWS V14.01,2013-01-13 20:07:00,
2013-01-13 15:12:00,53.4,52.9,29.94,WNW,292,8.1,8.1,98,0.08,,-RA,2.03,VWS V14.01,2013-01-13 20:12:00,
2013-01-13 15:17:00,52.7,52.2,29.94,WNW,292,1.6,8.1,98,0.08,,-RA,2.03,VWS V14.01,2013-01-13 20:17:00,
2013-01-13 15:22:00,51.8,51.3,29.94,WNW,292,6.0,8.1,98,0.08,,-RA,2.03,VWS V14.01,2013-01-13 20:22:00,
2013-01-13 15:27:00,51.3,50.7,29.97,WNW,292,3.6,8.1,98,0.08,,-RA,2.03,VWS V14.01,2013-01-13 20:27:00,
2013-01-13 15:32:00,50.5,50.0,29.97,West,270,4.9,8.1,98,0.12,,-RA,2.07,VWS V14.01,2013-01-13 20:32:00,
2013-01-13 15:37:00,50.0,49.5,29.97,NNW,338,4.3,8.1,98,0.12,,-RA,2.07,VWS V14.01,2013-01-13 20:37:00,
2013-01-13 15:42:00,49.6,49.1,29.97,NNW,338,2.5,8.1,98,0.12,,-RA,2.07,VWS V14.01,2013-01-13 20:42:00,
2013-01-13 15:47:00,49.1,48.6,29.97,NNW,338,1.3,8.1,98,0.12,,-RA,2.07,VWS V14.01,2013-01-13 20:47:00,
2013-01-13 15:52:00,48.6,47.8,29.97,NNW,338,4.7,8.1,97,0.12,,-RA,2.07,VWS V14.01,2013-01-13 20:52:00,
2013-01-13 15:57:00,48.2,47.4,29.94,North,0,2.7,8.1,97,0.12,,-RA,2.07,VWS V14.01,2013-01-13 20:57:00,
2013-01-13 16:02:00,48.0,47.2,29.94,WNW,292,0.9,3.4,97,0.08,,RA,2.07,VWS V14.01,2013-01-13 21:02:00,
2013-01-13 16:07:00,47.8,47.3,29.94,WNW,292,3.1,5.4,98,0.12,,RA,2.11,VWS V14.01,2013-01-13 21:07:00,
2013-01-13 16:12:00,47.7,47.1,29.97,WNW,292,3.8,6.5,98,0.12,,RA,2.11,VWS V14.01,2013-01-13 21:12:00,
2013-01-13 16:17:00,47.5,47.0,29.97,NW,315,2.5,6.5,98,0.17,,RA,2.16,VWS V14.01,2013-01-13 21:17:00,
2013-01-13 16:22:00,47.1,46.6,29.97,WNW,292,5.4,11.2,98,0.17,,RA,2.16,VWS V14.01,2013-01-13 21:22:00,
2013-01-13 16:27:00,46.6,45.8,29.97,NNW,338,8.5,11.2,97,0.17,,RA,2.16,VWS V14.01,2013-01-13 21:27:00,
2013-01-13 16:32:00,46.2,45.4,29.97,WNW,292,1.6,11.2,97,0.17,,-RA,2.16,VWS V14.01,2013-01-13 21:32:00,
2013-01-13 16:37:00,45.9,45.1,29.97,WNW,292,5.6,11.2,97,0.17,,-RA,2.16,VWS V14.01,2013-01-13 21:37:00,
2013-01-13 16:42:00,45.5,44.4,30.00,WNW,292,4.9,11.2,96,0.17,,-RA,2.16,VWS V14.01,2013-01-13 21:42:00,
2013-01-13 16:47:00,44.8,43.4,30.00,NW,315,6.3,11.2,95,0.17,,-RA,2.16,VWS V14.01,2013-01-13 21:47:00,
2013-01-13 16:52:00,44.2,42.9,30.00,WNW,292,4.3,11.2,95,0.21,,-RA,2.20,VWS V14.01,2013-01-13 21:52:00,
2013-01-13 16:57:00,44.1,42.7,30.00,NNW,338,7.6,11.2,95,0.21,,-RA,2.20,VWS V14.01,2013-01-13 21:57:00,
2013-01-13 17:02:00,43.7,42.4,30.00,NW,315,4.0,7.4,95,0.17,,RA,2.24,VWS V14.01,2013-01-13 22:02:00,
2013-01-13 17:07:00,43.7,42.6,30.00,WNW,292,4.0,7.4,96,0.17,,RA,2.24,VWS V14.01,2013-01-13 22:07:00,
2013-01-13 17:12:00,43.5,42.7,30.00,WNW,292,3.8,7.4,97,0.21,,RA,2.28,VWS V14.01,2013-01-13 22:12:00,
2013-01-13 17:17:00,43.2,42.4,30.00,WNW,292,2.9,8.7,97,0.25,,RA,2.32,VWS V14.01,2013-01-13 22:17:00,
2013-01-13 17:22:00,42.6,41.8,30.00,NNE,22,8.5,9.6,97,0.25,,RA,2.32,VWS V14.01,2013-01-13 22:22:00,
2013-01-13 17:27:00,42.1,41.0,30.00,WNW,292,6.5,9.6,96,0.25,,RA,2.32,VWS V14.01,2013-01-13 22:27:00,
2013-01-13 17:32:00,41.7,40.9,30.00,WNW,292,4.3,9.6,97,0.25,, +RA,2.32,VWS V14.01,2013-01-13 22:32:00,
2013-01-13 17:37:00,41.5,40.8,30.00,NNE,22,4.3,9.6,97,0.25,, +RA,2.32,VWS V14.01,2013-01-13 22:37:00,
2013-01-13 17:51:00,40.8,40.0,30.03,WNW,292,3.4,3.4,97,0.17,, +RA,2.37,VWS V14.01,2013-01-13 22:51:00,
2013-01-13 17:56:00,41.0,40.2,30.06,WNW,292,2.5,3.6,97,0.17,, +RA,2.37,VWS V14.01,2013-01-13 22:56:00,
2013-01-13 18:01:00,40.8,40.3,30.06,WNW,292,0.0,5.6,98,0.17,, +RA,2.37,VWS V14.01,2013-01-13 23:01:00,
2013-01-13 18:06:00,40.8,40.3,30.06,West,270,1.3,5.6,98,0.17,, +RA,2.37,VWS V14.01,2013-01-13 23:06:00,
2013-01-13 18:11:00,40.6,40.1,30.06,WNW,292,6.5,7.4,98,0.21,, +RA,2.41,VWS V14.01,2013-01-13 23:11:00,
2013-01-13 18:16:00,40.3,39.8,30.06,North,0,2.9,7.6,98,0.21,,RA,2.41,VWS V14.01,2013-01-13 23:16:00,
2013-01-13 18:21:00,40.1,39.6,30.06,WNW,292,2.0,7.6,98,0.21,,RA,2.41,VWS V14.01,2013-01-13 23:21:00,
2013-01-13 18:26:00,40.1,39.6,30.09,West,270,2.7,7.6,98,0.25,,RA,2.45,VWS V14.01,2013-01-13 23:26:00,
2013-01-13 18:31:00,39.9,39.4,30.09,NW,315,1.6,8.5,98,0.25,,RA,2.45,VWS V14.01,2013-01-13 23:31:00,
2013-01-13 18:36:00,39.7,39.2,30.09,NW,315,1.3,8.5,98,0.25,,RA,2.45,VWS V14.01,2013-01-13 23:36:00,
2013-01-13 18:41:00,39.6,39.0,30.09,NNW,338,4.0,8.5,98,0.25,,RA,2.45,VWS V14.01,2013-01-13 23:41:00,
2013-01-13 18:46:00,39.2,38.7,30.09,WNW,292,3.1,10.5,98,0.25,, +RA,2.45,VWS V14.01,2013-01-13 23:46:00,
2013-01-13 18:51:00,38.8,38.3,30.09,NW,315,4.9,10.5,98,0.25,, +RA,2.45,VWS V14.01,2013-01-13 23:51:00,
2013-01-13 18:56:00,38.7,38.2,30.12,NNE,22,3.6,10.5,98,0.29,, +RA,2.49,VWS V14.01,2013-01-13 23:56:00,
2013-01-13 19:01:00,38.5,38.0,30.12,WNW,292,3.1,10.3,98,0.12,, +RA,2.49,VWS V14.01,2013-01-14 00:01:00,
2013-01-13 19:06:00,38.1,37.3,30.12,NNW,338,6.5,10.3,97,0.12,, +RA,2.49,VWS V14.01,2013-01-14 00:06:00,
2013-01-13 19:11:00,37.9,36.9,30.15,NNW,338,4.9,10.3,96,0.12,, +RA,2.49,VWS V14.01,2013-01-14 00:11:00,
2013-01-13 19:16:00,37.6,36.3,30.15,WNW,292,6.0,10.7,95,0.12,,-RA,2.49,VWS V14.01,2013-01-14 00:16:00,
2013-01-13 19:21:00,37.6,36.3,30.15,NW,315,3.6,10.7,95,0.12,,-RA,2.49,VWS V14.01,2013-01-14 00:21:00,
2013-01-13 19:26:00,37.4,36.1,30.15,WNW,292,3.8,10.7,95,0.12,,-RA,2.49,VWS V14.01,2013-01-14 00:26:00,
2013-01-13 19:31:00,37.4,36.1,30.15,WNW,292,4.9,10.7,95,0.12,,-RA,2.49,VWS V14.01,2013-01-14 00:31:00,
2013-01-13 19:36:00,37.2,35.9,30.15,NW,315,2.7,10.7,95,0.12,,-RA,2.49,VWS V14.01,2013-01-14 00:36:00,
2013-01-13 19:41:00,37.0,35.7,30.15,WNW,292,4.0,12.5,95,0.12,,-RA,2.49,VWS V14.01,2013-01-14 00:41:00,
2013-01-13 19:46:00,37.0,35.7,30.15,WNW,292,5.6,12.5,95,0.12,,-RA,2.49,VWS V14.01,2013-01-14 00:46:00,
2013-01-13 19:51:00,37.0,35.7,30.15,NNW,338,2.5,12.5,95,0.12,,-RA,2.49,VWS V14.01,2013-01-14 00:51:00,
2013-01-13 19:56:00,37.0,35.7,30.15,NNW,338,3.6,12.5,95,0.12,,-RA,2.49,VWS V14.01,2013-01-14 00:56:00,
2013-01-13 20:01:00,37.2,36.2,30.15,NW,315,3.8,5.4,96,0.00,,OVC024,2.49,VWS V14.01,2013-01-14 01:01:00,
2013-01-13 20:06:00,37.4,36.4,30.15,West,270,3.6,5.4,96,0.00,,OVC024,2.49,VWS V14.01,2013-01-14 01:06:00,
2013-01-13 20:11:00,37.4,36.4,30.15,WNW,292,2.7,5.4,96,0.00,,OVC024,2.49,VWS V14.01,2013-01-14 01:11:00,
2013-01-13 20:16:00,37.4,36.4,30.15,WNW,292,0.0,6.0,96,0.00,,OVC024,2.49,VWS V14.01,2013-01-14 01:16:00,
2013-01-13 20:21:00,37.6,36.5,30.15,WNW,292,3.1,6.0,96,0.00,,OVC024,2.49,VWS V14.01,2013-01-14 01:21:00,
2013-01-13 20:26:00,37.4,36.4,30.15,WNW,292,4.7,7.6,96,0.00,,OVC024,2.49,VWS V14.01,2013-01-14 01:26:00,
2013-01-13 20:31:00,37.4,36.4,30.15,WNW,292,2.0,7.6,96,0.00,,OVC008,2.49,VWS V14.01,2013-01-14 01:31:00,
2013-01-13 20:36:00,37.4,36.4,30.15,WNW,292,5.4,7.6,96,0.00,,OVC008,2.49,VWS V14.01,2013-01-14 01:36:00,
2013-01-13 20:41:00,37.4,36.1,30.15,NNW,338,5.4,10.5,95,0.00,,OVC008,2.49,VWS V14.01,2013-01-14 01:41:00,
2013-01-13 20:46:00,37.4,35.8,30.15,North,0,3.1,10.5,94,0.00,,OVC008,2.49,VWS V14.01,2013-01-14 01:46:00,
2013-01-13 20:51:00,37.4,35.8,30.15,WSW,248,2.9,10.5,94,0.00,,OVC008,2.49,VWS V14.01,2013-01-14 01:51:00,
2013-01-13 20:56:00,37.4,35.8,30.18,NNW,338,3.6,10.5,94,0.00,,OVC008,2.49,VWS V14.01,2013-01-14 01:56:00,
2013-01-13 21:01:00,37.4,35.8,30.18,NW,315,3.8,7.4,94,0.00,,OVC008,2.49,VWS V14.01,2013-01-14 02:01:00,
2013-01-13 21:06:00,37.4,35.8,30.18,NNW,338,2.9,7.4,94,0.00,,OVC008,2.49,VWS V14.01,2013-01-14 02:06:00,
2013-01-13 21:11:00,37.4,35.8,30.18,West,270,2.2,7.4,94,0.00,,OVC008,2.49,VWS V14.01,2013-01-14 02:11:00,
2013-01-13 21:16:00,37.4,35.6,30.18,NNW,338,4.7,8.5,93,0.00,,OVC007,2.49,VWS V14.01,2013-01-14 02:16:00,
2013-01-13 21:21:00,37.4,35.3,30.18,WNW,292,1.3,9.4,92,0.00,,OVC007,2.49,VWS V14.01,2013-01-14 02:21:00,
2013-01-13 21:26:00,37.4,35.3,30.21,NNW,338,3.6,9.4,92,0.00,,OVC007,2.49,VWS V14.01,2013-01-14 02:26:00,
2013-01-13 21:31:00,37.4,35.3,30.21,NW,315,3.6,9.4,92,0.00,,OVC007,2.49,VWS V14.01,2013-01-14 02:31:00,
2013-01-13 21:36:00,37.4,35.3,30.21,NW,315,6.0,9.4,92,0.00,,OVC007,2.49,VWS V14.01,2013-01-14 02:36:00,
2013-01-13 21:41:00,37.2,35.1,30.21,NNW,338,4.9,9.4,92,0.00,,OVC007,2.49,VWS V14.01,2013-01-14 02:41:00,
2013-01-13 21:46:00,37.0,34.4,30.21,NNW,338,5.4,9.4,90,0.00,,OVC007,2.49,VWS V14.01,2013-01-14 02:46:00,
2013-01-13 21:51:00,37.0,34.4,30.21,WNW,292,2.9,9.4,90,0.00,,OVC007,2.49,VWS V14.01,2013-01-14 02:51:00,
2013-01-13 21:56:00,37.0,34.4,30.21,NNW,338,2.0,9.4,90,0.00,,OVC007,2.49,VWS V14.01,2013-01-14 02:56:00,
2013-01-13 22:01:00,37.0,34.4,30.21,WSW,248,3.4,5.8,90,0.00,,OVC007,2.49,VWS V14.01,2013-01-14 03:01:00,
2013-01-13 22:06:00,37.0,34.4,30.21,WNW,292,2.0,6.5,90,0.00,,OVC007,2.49,VWS V14.01,2013-01-14 03:06:00,
2013-01-13 22:11:00,36.9,33.9,30.21,NW,315,4.7,8.5,89,0.00,,OVC007,2.49,VWS V14.01,2013-01-14 03:11:00,
2013-01-13 22:16:00,36.7,33.2,30.21,NW,315,3.1,9.8,87,0.00,,OVC006,2.49,VWS V14.01,2013-01-14 03:16:00,
2013-01-13 22:21:00,36.3,32.5,30.21,WNW,292,4.3,10.5,86,0.00,,OVC006,2.49,VWS V14.01,2013-01-14 03:21:00,
2013-01-13 22:26:00,36.3,32.2,30.21,NNW,338,4.7,10.5,85,0.00,,OVC006,2.49,VWS V14.01,2013-01-14 03:26:00,
2013-01-13 22:31:00,36.3,32.5,30.21,NNW,338,3.8,10.5,86,0.00,,OVC006,2.49,VWS V14.01,2013-01-14 03:31:00,
2013-01-13 22:36:00,36.1,32.4,30.21,NW,315,3.4,10.5,86,0.00,,OVC006,2.49,VWS V14.01,2013-01-14 03:36:00,
2013-01-13 22:41:00,36.1,32.7,30.27,NNW,338,4.9,10.5,87,0.00,,OVC006,2.49,VWS V14.01,2013-01-14 03:41:00,
2013-01-13 22:46:00,36.3,32.8,30.27,North,0,3.6,10.5,87,0.00,,OVC007,2.49,VWS V14.01,2013-01-14 03:46:00,
2013-01-13 22:51:00,36.1,32.7,30.27,WNW,292,2.5,10.5,87,0.00,,OVC007,2.49,VWS V14.01,2013-01-14 03:51:00,
2013-01-13 22:56:00,36.1,32.9,30.27,WNW,292,5.6,10.5,88,0.00,,OVC007,2.49,VWS V14.01,2013-01-14 03:56:00,
2013-01-13 23:01:00,36.1,32.9,30.27,WNW,292,6.0,6.3,88,0.00,,OVC007,2.49,VWS V14.01,2013-01-14 04:01:00,
2013-01-13 23:06:00,35.8,32.6,30.27,WNW,292,3.4,6.5,88,0.00,,OVC007,2.49,VWS V14.01,2013-01-14 04:06:00,
2013-01-13 23:11:00,35.6,32.1,30.27,NW,315,4.9,8.7,87,0.00,,OVC007,2.49,VWS V14.01,2013-01-14 04:11:00,
2013-01-13 23:16:00,35.6,32.1,30.27,North,0,5.8,8.7,87,0.00,,OVC009,2.49,VWS V14.01,2013-01-14 04:16:00,
2013-01-13 23:21:00,35.4,31.9,30.27,NNE,22,2.9,8.7,87,0.00,,OVC009,2.49,VWS V14.01,2013-01-14 04:21:00,
2013-01-13 23:26:00,35.1,31.6,30.27,WNW,292,1.6,8.7,87,0.00,,OVC009,2.49,VWS V14.01,2013-01-14 04:26:00,
2013-01-13 23:31:00,35.1,31.6,30.27,NNW,338,4.0,8.7,87,0.00,,OVC009,2.49,VWS V14.01,2013-01-14 04:31:00,
2013-01-13 23:36:00,34.9,31.4,30.27,NNW,338,3.8,8.7,87,0.00,,OVC009,2.49,VWS V14.01,2013-01-14 04:36:00,
2013-01-13 23:41:00,34.9,31.4,30.27,WNW,292,2.0,8.7,87,0.00,,OVC009,2.49,VWS V14.01,2013-01-14 04:41:00,
2013-01-13 23:46:00,34.9,31.4,30.27,WNW,292,2.9,8.7,87,0.00,,OVC010,2.49,VWS V14.01,2013-01-14 04:46:00,
2013-01-13 23:51:00,34.9,31.4,30.27,WNW,292,3.1,8.7,87,0.00,,OVC010,2.49,VWS V14.01,2013-01-14 04:51:00,
2013-01-13 23:56:00,34.9,31.4,30.24,West,270,2.5,8.7,87,0.00,,OVC010,2.49,VWS V14.01,2013-01-14 04:56:00,